Location: Tr�vern
(48.0333°N, 4.6000°W)
Time: 01:41:15
(UTC+00:00)

IRS-1C - Pass Details

Date: 14 July 2020
Orbit: 815 x 817 km, 98.8° (Epoch: 04 August)

Event Time Altitude Azimuth Distance (km) Brightness Sun altitude
Rises 02:51:23 0° 16° (NNE) 3,355 8.8 -12.9°
Reaches altitude 10° 02:53:45 10° 19° (NNE) 2,419 7.9 -12.7°
Maximum altitude 02:59:06 70° 103° (ESE) 867 4.3 -12.2°
Enters shadow 03:04:12 11° 187° (S) 2,326 6.0 -11.7°
